TimeEDT,TemperatureF,Dew PointF,Humidity,Sea Level PressureIn,VisibilityMPH,Wind Direction,Wind SpeedMPH,Gust SpeedMPH,PrecipitationIn,Events,Conditions,WindDirDegrees,DateUTC
12:53 AM,69.1,54.0,58,29.96,10.0,WSW,8.1,-,N/A,,Clear,240,2013-04-10 04:53:00
1:53 AM,68.0,55.0,63,29.96,10.0,WSW,9.2,-,N/A,,Clear,240,2013-04-10 05:53:00
2:53 AM,68.0,55.0,63,29.94,10.0,WSW,9.2,-,N/A,,Mostly Cloudy,250,2013-04-10 06:53:00
3:53 AM,68.0,55.0,63,29.94,10.0,SW,6.9,-,N/A,,Overcast,220,2013-04-10 07:53:00
4:53 AM,66.0,55.0,68,29.93,10.0,SW,4.6,-,N/A,,Mostly Cloudy,220,2013-04-10 08:53:00
5:53 AM,64.9,55.0,70,29.93,10.0,SW,4.6,-,N/A,,Partly Cloudy,230,2013-04-10 09:53:00
6:53 AM,66.0,55.9,70,29.94,10.0,SW,6.9,-,N/A,,Mostly Cloudy,220,2013-04-10 10:53:00
7:53 AM,68.0,55.9,65,29.94,10.0,SSW,9.2,-,N/A,,Mostly Cloudy,210,2013-04-10 11:53:00
8:53 AM,70.0,55.9,61,29.94,10.0,SW,11.5,-,N/A,,Mostly Cloudy,220,2013-04-10 12:53:00
9:53 AM,73.9,57.0,55,29.92,10.0,SW,11.5,21.9,N/A,,Clear,220,2013-04-10 13:53:00
10:53 AM,75.9,57.9,54,29.92,10.0,SW,16.1,28.8,N/A,,Partly Cloudy,230,2013-04-10 14:53:00
11:53 AM,78.1,59.0,52,29.91,10.0,SW,17.3,32.2,N/A,,Scattered Clouds,220,2013-04-10 15:53:00
12:43 PM,80.6,60.8,51,29.93,10.0,SW,17.3,28.8,N/A,Thunderstorm,Mostly Cloudy,230,2013-04-10 16:43:00
12:53 PM,80.1,60.1,50,29.91,10.0,WSW,19.6,28.8,N/A,,Mostly Cloudy,250,2013-04-10 16:53:00
1:53 PM,79.0,60.1,52,29.90,10.0,WSW,21.9,25.3,N/A,,Clear,250,2013-04-10 17:53:00
2:53 PM,82.0,60.1,47,29.86,10.0,SW,17.3,28.8,N/A,,Scattered Clouds,230,2013-04-10 18:53:00
3:53 PM,82.0,60.1,47,29.83,10.0,SW,20.7,31.1,N/A,,Scattered Clouds,230,2013-04-10 19:53:00
4:53 PM,81.0,59.0,47,29.82,10.0,SW,13.8,26.5,N/A,,Partly Cloudy,230,2013-04-10 20:53:00
5:53 PM,81.0,57.0,44,29.80,10.0,SW,15.0,25.3,N/A,,Mostly Cloudy,230,2013-04-10 21:53:00
6:53 PM,79.0,55.9,45,29.81,10.0,WSW,15.0,26.5,N/A,,Clear,240,2013-04-10 22:53:00
7:53 PM,77.0,55.9,48,29.83,10.0,West,6.9,-,N/A,,Scattered Clouds,280,2013-04-10 23:53:00
8:09 PM,68.0,53.6,60,29.88,10.0,North,24.2,40.3,N/A,,Squalls,360,2013-04-11 00:09:00
8:21 PM,66.2,53.6,64,29.89,10.0,NNE,18.4,26.5,N/A,,Overcast,20,2013-04-11 00:21:00
8:53 PM,64.0,55.0,73,29.89,10.0,NNE,9.2,-,N/A,,Overcast,20,2013-04-11 00:53:00
9:53 PM,62.1,55.0,78,29.87,10.0,East,5.8,-,0.00,,Scattered Clouds,100,2013-04-11 01:53:00
10:53 PM,61.0,55.0,81,29.86,10.0,East,4.6,-,N/A,,Clear,100,2013-04-11 02:53:00
11:53 PM,61.0,55.0,81,29.86,10.0,ESE,3.5,-,N/A,,Clear,120,2013-04-11 03:53:00